User: anonymous   Login
Location: Unspecified
(0.0000°N, 0.0000°E)
Time: 01:34:28
(UTC+02:00)
Language:

ARIANE 5 R/B - Orbit

View from above orbital plane
View from above orbital plane
View from above satellite
View from above satellite

Ground track
Ground track

The orbit data is extracted from the following two-line orbital elements,

1 28787U 05028B   17292.62187601 -.00000020 +00000-0 +10166-2 0  9998
2 28787 007.4519 351.9679 7162482 291.1165 043.5318 02.26568315100918
Epoch (UTC): 19 October 2017 14:55:30
Eccentricity: 0.7162482
inclination: 7.4519°
perigee height: 570 km
apogee height: 35647 km
right ascension of ascending node: 351.9679°
argument of perigee: 291.1165°
revolutions per day: 2.26568315
mean anomaly at epoch: 43.5318°
orbit number at epoch: 10091

The dashed part of the orbit path shows where the satellite is in the earth's shadow,  

DLR